User: anonymous   Login
Location: Unspecified
(0.0000°N, 0.0000°E)
Time: 18:01:39
(UTC+00:00)
Language:

GONETS M 05 - Orbit

View from above orbital plane
View from above orbital plane
View from above satellite
View from above satellite

Ground track
Ground track

The orbit data is extracted from the following two-line orbital elements,

1 39249U 13048A   19016.71334433 +.00000031 +00000-0 +15316-3 0  9991
2 39249 082.4798 231.8182 0016255 003.3570 356.7609 12.42883931242576
Epoch (UTC): 16 January 2019 17:07:12
Eccentricity: 0.0016255
inclination: 82.4798°
perigee height: 1481 km
apogee height: 1507 km
right ascension of ascending node: 231.8182°
argument of perigee: 3.3570°
revolutions per day: 12.42883931
mean anomaly at epoch: 356.7609°
orbit number at epoch: 24257

The dashed part of the orbit path shows where the satellite is in the earth's shadow,  

DLR